When you browse on this site, cookies collect data to enhance your experience and personalize the content and advertising you see.
Visit our Privacy Policy to learn more. By continuing to use the site, you agree to this use of cookies and data.
EN

Hourly Weather Balho

Today, 6 July, Monday

Time Temperature Precipitation Wind Pressure Humidity
00:00 +32°C° 0 mm 1 mps 729 mmHg 40%
01:00 +32°C° 0 mm 1 mps 729 mmHg 40%
02:00 +31°C° 0 mm 1 mps 729 mmHg 41%
03:00 +30°C° 0 mm 0 mps 729 mmHg 40%
04:00 +32°C° 0 mm 1 mps 729 mmHg 40%
05:00 +32°C° 0 mm 1 mps 729 mmHg 40%
06:00 +32°C° 0 mm 1 mps 729 mmHg 39%
07:00 +34°C° 0 mm 2 mps 730 mmHg 35%
08:00 +36°C° 0 mm 2 mps 730 mmHg 31%
09:00 +38°C° 0 mm 3 mps 730 mmHg 26%
10:00 +38°C° 0.1 mm 3 mps 730 mmHg 26%
11:00 +38°C° 0.1 mm 3 mps 730 mmHg 27%
12:00 +38°C° 0.1 mm 3 mps 730 mmHg 27%
13:00 +40°C° 0 mm 3 mps 729 mmHg 23%
14:00 +42°C° 0 mm 3 mps 729 mmHg 20%
15:00 +44°C° 0 mm 4 mps 728 mmHg 16%
16:00 +43°C° 0 mm 4 mps 728 mmHg 17%
17:00 +43°C° 0 mm 4 mps 728 mmHg 19%
18:00 +42°C° 0 mm 4 mps 728 mmHg 20%
19:00 +40°C° 0 mm 3 mps 729 mmHg 24%
20:00 +39°C° 0 mm 3 mps 729 mmHg 28%
21:00 +38°C° 0 mm 2 mps 729 mmHg 32%
22:00 +36°C° 0 mm 1 mps 729 mmHg 33%
23:00 +35°C° 0 mm 1 mps 730 mmHg 35%

Tomorrow, 7 July, Tuesday

Time Temperature Precipitation Wind Pressure Humidity
00:00 +32°C° 0 mm 0 mps 730 mmHg 37%
01:00 +32°C° 0 mm 0 mps 730 mmHg 37%
02:00 +34°C° 0 mm 1 mps 729 mmHg 38%
03:00 +33°C° 0 mm 1 mps 729 mmHg 39%
04:00 +33°C° 0 mm 1 mps 729 mmHg 39%
05:00 +32°C° 0 mm 1 mps 730 mmHg 40%
06:00 +32°C° 0 mm 1 mps 730 mmHg 40%
07:00 +34°C° 0 mm 1 mps 730 mmHg 36%
08:00 +36°C° 0 mm 2 mps 731 mmHg 32%
09:00 +38°C° 0 mm 2 mps 731 mmHg 29%
10:00 +40°C° 0 mm 3 mps 731 mmHg 24%
11:00 +42°C° 0 mm 4 mps 731 mmHg 19%
12:00 +45°C° 0 mm 5 mps 731 mmHg 14%
13:00 +46°C° 0 mm 6 mps 730 mmHg 14%
14:00 +46°C° 0 mm 6 mps 730 mmHg 14%
15:00 +47°C° 0 mm 7 mps 729 mmHg 14%
16:00 +46°C° 0 mm 7 mps 729 mmHg 18%
17:00 +45°C° 0 mm 7 mps 729 mmHg 21%
18:00 +44°C° 0 mm 7 mps 729 mmHg 24%
19:00 +43°C° 0 mm 7 mps 729 mmHg 27%
20:00 +40°C° 0 mm 7 mps 730 mmHg 30%
21:00 +39°C° 0 mm 7 mps 730 mmHg 33%
22:00 +38°C° 0 mm 6 mps 730 mmHg 32%
23:00 +37°C° 0 mm 5 mps 730 mmHg 31%

Day after tomorrow, 8 July, Wednesday

Time Temperature Precipitation Wind Pressure Humidity
00:00 +36°C° 0 mm 4 mps 731 mmHg 30%
01:00 +36°C° 0 mm 3 mps 730 mmHg 31%
02:00 +35°C° 0 mm 2 mps 730 mmHg 33%
03:00 +33°C° 0 mm 1 mps 730 mmHg 34%
04:00 +33°C° 0 mm 1 mps 730 mmHg 34%
05:00 +33°C° 0 mm 1 mps 731 mmHg 35%
06:00 +32°C° 0 mm 1 mps 731 mmHg 36%
07:00 +34°C° 0 mm 1 mps 731 mmHg 32%
08:00 +35°C° 0 mm 1 mps 732 mmHg 28%
09:00 +38°C° 0 mm 2 mps 732 mmHg 23%
10:00 +39°C° 0 mm 3 mps 732 mmHg 22%
11:00 +42°C° 0 mm 3 mps 732 mmHg 20%
12:00 +43°C° 0 mm 4 mps 732 mmHg 19%
13:00 +45°C° 0 mm 6 mps 731 mmHg 19%
14:00 +46°C° 0 mm 8 mps 730 mmHg 19%
15:00 +47°C° 0 mm 9 mps 730 mmHg 20%
16:00 +45°C° 0 mm 9 mps 730 mmHg 22%
17:00 +44°C° 0 mm 8 mps 729 mmHg 24%
18:00 +43°C° 0 mm 8 mps 729 mmHg 26%
19:00 +41°C° 0 mm 7 mps 730 mmHg 30%
20:00 +40°C° 0 mm 7 mps 730 mmHg 33%
21:00 +39°C° 0 mm 7 mps 731 mmHg 37%
22:00 +38°C° 0 mm 6 mps 731 mmHg 35%
23:00 +37°C° 0 mm 4 mps 731 mmHg 33%

9 July, Thursday

Time Temperature Precipitation Wind Pressure Humidity
00:00 +37°C° 0 mm 3 mps 731 mmHg 32%
01:00 +36°C° 0 mm 3 mps 730 mmHg 33%
02:00 +36°C° 0 mm 2 mps 730 mmHg 34%
03:00 +34°C° 0 mm 1 mps 730 mmHg 35%
04:00 +34°C° 0 mm 1 mps 730 mmHg 35%
05:00 +34°C° 0 mm 1 mps 731 mmHg 35%
06:00 +34°C° 0 mm 1 mps 731 mmHg 35%
07:00 +35°C° 0 mm 1 mps 731 mmHg 32%
08:00 +36°C° 0 mm 1 mps 732 mmHg 29%
09:00 +38°C° 0 mm 2 mps 732 mmHg 27%
10:00 +40°C° 0 mm 2 mps 732 mmHg 23%
11:00 +41°C° 0 mm 2 mps 731 mmHg 20%
12:00 +43°C° 0 mm 2 mps 731 mmHg 17%
13:00 +45°C° 0 mm 4 mps 730 mmHg 17%
14:00 +47°C° 0 mm 6 mps 730 mmHg 16%
15:00 +49°C° 0 mm 7 mps 729 mmHg 16%
16:00 +48°C° 0.2 mm 8 mps 729 mmHg 18%
17:00 +45°C° 0.2 mm 9 mps 729 mmHg 20%
18:00 +43°C° 0.2 mm 10 mps 729 mmHg 22%
19:00 +41°C° 0 mm 8 mps 729 mmHg 22%
20:00 +40°C° 0 mm 6 mps 730 mmHg 23%
21:00 +38°C° 0 mm 4 mps 730 mmHg 23%
22:00 +37°C° 0 mm 3 mps 730 mmHg 25%
23:00 +37°C° 0 mm 2 mps 730 mmHg 27%

10 July, Friday

Time Temperature Precipitation Wind Pressure Humidity
00:00 +35°C° 0 mm 1 mps 730 mmHg 29%
01:00 +35°C° 0 mm 1 mps 730 mmHg 30%
02:00 +35°C° 0 mm 1 mps 729 mmHg 31%
03:00 +34°C° 0 mm 1 mps 729 mmHg 31%
04:00 +34°C° 0 mm 1 mps 730 mmHg 32%
05:00 +33°C° 0 mm 1 mps 730 mmHg 34%
06:00 +34°C° 0 mm 2 mps 730 mmHg 35%
07:00 +35°C° 0 mm 2 mps 731 mmHg 33%
08:00 +37°C° 0 mm 3 mps 731 mmHg 31%
09:00 +38°C° 0 mm 3 mps 732 mmHg 29%
10:00 +41°C° 0 mm 4 mps 731 mmHg 26%
11:00 +43°C° 0 mm 5 mps 731 mmHg 22%
12:00 +46°C° 0 mm 6 mps 731 mmHg 18%
13:00 +46°C° 0 mm 7 mps 730 mmHg 17%
14:00 +48°C° 0 mm 8 mps 729 mmHg 15%
15:00 +49°C° 0 mm 8 mps 729 mmHg 14%
16:00 +48°C° 0 mm 9 mps 729 mmHg 13%
17:00 +47°C° 0 mm 10 mps 728 mmHg 13%
18:00 +46°C° 0 mm 11 mps 728 mmHg 13%
19:00 +44°C° 0 mm 9 mps 729 mmHg 17%
20:00 +41°C° 0 mm 6 mps 729 mmHg 21%
21:00 +38°C° 0 mm 4 mps 730 mmHg 25%
22:00 +38°C° 0 mm 4 mps 729 mmHg 28%
23:00 +37°C° 0 mm 4 mps 729 mmHg 31%

11 July, Saturday

Time Temperature Precipitation Wind Pressure Humidity
00:00 +37°C° 0 mm 3 mps 729 mmHg 34%
01:00 +37°C° 0 mm 2 mps 729 mmHg 34%
02:00 +36°C° 0 mm 2 mps 729 mmHg 34%
03:00 +35°C° 0 mm 1 mps 729 mmHg 34%
04:00 +35°C° 0 mm 1 mps 729 mmHg 35%
05:00 +35°C° 0 mm 1 mps 729 mmHg 35%
06:00 +34°C° 0 mm 1 mps 730 mmHg 36%
07:00 +37°C° 0 mm 2 mps 730 mmHg 33%
08:00 +38°C° 0 mm 3 mps 731 mmHg 30%
09:00 +41°C° 0 mm 4 mps 731 mmHg 26%
10:00 +42°C° 0 mm 5 mps 731 mmHg 24%
11:00 +45°C° 0 mm 7 mps 731 mmHg 22%
12:00 +48°C° 0 mm 9 mps 731 mmHg 19%
13:00 +48°C° 0 mm 10 mps 730 mmHg 17%
14:00 +48°C° 0 mm 10 mps 729 mmHg 15%
15:00 +49°C° 0 mm 11 mps 729 mmHg 13%
16:00 +47°C° 0 mm 12 mps 729 mmHg 16%
17:00 +46°C° 0 mm 12 mps 729 mmHg 18%
18:00 +43°C° 0 mm 12 mps 729 mmHg 20%
19:00 +42°C° 0 mm 10 mps 729 mmHg 23%
20:00 +40°C° 0 mm 8 mps 730 mmHg 26%
21:00 +39°C° 0 mm 6 mps 730 mmHg 29%
22:00 +39°C° 0 mm 5 mps 730 mmHg 28%
23:00 +39°C° 0 mm 5 mps 729 mmHg 26%
Show more